KINDAKUN ROCKS(AUT) current weather conditions

sailwx.info

Wind from 230 at 8 knots

Air temperature 7.1° C
Dewpoint 3.0° C

Last reported at 2017-Dec-17 16:00 UTC.
Time now 2017-Dec-17 17:41 UTC

Location: N 53°19' W 132°46'.
View on Google Maps.

See reports from other nearby stations

  
Tides and Currents Weather Stations Pressure Air Temp Water Temp Dewpoint Dewpoint Depression Visibility Wind Speed Wind Dir Waves Ship Positions
date/time (UTC)wind fromknots sea level pressurealtimeterstation pressurevisibilityair tempwater tempwave heightnotes
2017-Dec-17 16:00 230 8 7.1
2017-Dec-17 15:00 260 6 7.1
2017-Dec-17 14:00 260 9 7.0
2017-Dec-17 13:00 280 9 7.2
2017-Dec-17 12:00 280 11 7.2
2017-Dec-17 11:00 280 14 7.0
2017-Dec-17 10:00 280 15 gusting 20 7.0
2017-Dec-17 09:00 280 14 7.2
2017-Dec-17 08:00 310 14 7.6
2017-Dec-17 07:00 300 20 8.0
2017-Dec-17 06:00 290 21 7.6
2017-Dec-17 05:00 290 18 7.9
2017-Dec-17 04:00 290 22 gusting 27 7.3
2017-Dec-17 03:00 290 17 gusting 24 7.9
2017-Dec-17 02:00 280 17 gusting 21 7.9
2017-Dec-17 01:00 260 17 8.1
2017-Dec-17 00:00 250 12 9.0
2017-Dec-16 23:00 220 13 8.5
2017-Dec-16 22:00 200 13 9.0
2017-Dec-16 21:00 170 13 8.6
2017-Dec-16 20:00 170 12 8.5
2017-Dec-16 19:00 160 13 8.6
2017-Dec-16 18:00 170 18 8.7
2017-Dec-16 17:00 150 21 9.0
2017-Dec-16 16:00 150 26 gusting 31 8.3
2017-Dec-16 15:00 150 31 gusting 38 8.1
2017-Dec-16 14:00 150 32 gusting 39 8.0
2017-Dec-16 13:00 150 32 gusting 41 7.9
2017-Dec-16 12:00 150 31 gusting 36 7.0
2017-Dec-16 11:00 160 27 gusting 36 6.9
2017-Dec-16 10:00 150 27 gusting 32 7.0
2017-Dec-16 09:00 160 25 gusting 32 7.1
2017-Dec-16 08:00 150 27 gusting 33 6.0
2017-Dec-16 07:00 170 25 6.7
2017-Dec-16 06:00 170 21 6.8
2017-Dec-16 05:00 160 18 7.3
2017-Dec-16 04:00 170 14 6.5
2017-Dec-16 03:00 180 14 7.0
2017-Dec-16 02:00 210 11 7.3
2017-Dec-16 01:00 250 7 7.0
2017-Dec-16 00:00 300 4 7.1
2017-Dec-15 23:00 290 8 7.0
2017-Dec-15 22:00 300 13 6.9
2017-Dec-15 21:00 270 11 7.2
2017-Dec-15 20:00 260 13 7.3
2017-Dec-15 19:00 220 6 6.8
2017-Dec-15 18:00 290 5 7.0
2017-Dec-15 17:00 300 11 7.2